Location: ????????
(38.4362°N, 22.8767°E)
Time: 20:37:05
(UTC+00:00)

CZ-2C R/B - Visible Passes

Search period start: 12 July 2024 00:00
Search period end: 22 July 2024 00:00
Orbit: 784 x 868 km, 98.3° (Epoch: 12 July)

Date Brightness Start Highest point End Pass type
(mag) Time Alt. Az. Time Alt. Az. Time Alt. Az.
12 Jul 3.9 01:38:59 22° WSW 01:40:13 23° W 01:44:36 10° NW visible
12 Jul 4.3 23:38:16 20° ESE 23:40:57 30° ENE 23:45:46 10° N visible
13 Jul 3.4 01:19:45 31° WSW 01:21:02 34° W 01:26:06 10° NNW visible
13 Jul 4.8 23:19:03 14° ESE 23:22:06 21° ENE 23:26:13 10° NNE visible
14 Jul 2.9 01:00:32 42° SW 01:01:54 51° W 01:07:22 10° NNW visible
14 Jul 5.2 23:00:22 10° E 23:03:19 15° ENE 23:06:17 10° NNE visible
15 Jul 2.6 00:41:19 50° S 00:42:50 77° WSW 00:48:27 10° NNW visible
16 Jul 2.8 00:22:06 46° SSE 00:23:49 74° ENE 00:29:25 10° N visible
16 Jul 4.4 02:03:34 13° W 02:04:34 13° W 02:07:14 10° WNW visible
17 Jul 3.4 00:02:53 35° ESE 00:04:50 50° ENE 00:10:14 10° N visible
17 Jul 4.0 01:44:22 20° WSW 01:45:18 21° W 01:49:25 10° NW visible
17 Jul 4.1 23:43:40 25° ESE 23:45:55 34° ENE 23:50:55 10° N visible
18 Jul 3.5 01:25:09 29° WSW 01:26:06 31° W 01:31:00 10° NW visible
18 Jul 4.6 23:24:27 17° ESE 23:27:04 24° ENE 23:31:25 10° NNE visible
19 Jul 3.1 01:05:56 41° SW 01:06:57 45° W 01:12:20 10° NNW visible
19 Jul 5.1 23:05:15 11° E 23:08:15 17° ENE 23:11:39 10° NNE visible
20 Jul 2.7 00:46:44 54° SSW 00:47:51 68° WSW 00:53:27 10° NNW visible
20 Jul 5.3 22:47:54 10° ENE 22:49:29 11° ENE 22:51:06 10° NE visible
21 Jul 2.7 00:27:32 55° SSE 00:28:49 83° ENE 00:34:27 10° N visible
21 Jul 4.6 02:09:00 11° W 02:09:39 12° W 02:11:34 10° WNW visible
